Temperature
31 31 32 32 32 32 32 32 31 31 31 30 30 30 30 29 28 27 26 26 25 25 24 24 23 22 22 21 21 20 20 19 19 18 18 18 18 18 18 17 17 17 17 17
29 31 31 31 32 32 32 32 31 31 30 31 30 30 29 28 27 27 26 25 25 24 23 23 22 22 21 21 21 20 20 19 19 18 18 18 18 17 17 17 17 17 17 17
28 30 30 30 31 31 31 32 31 30 29 29 29 29 28 28 27 26 25 25 24 23 23 22 22 21 21 20 20 20 19 19 18 18 18 18 17 17 17 17 17 17 17 16
28 28 27 30 32 32 31 31 31 30 30 29 28 27 27 26 26 25 24 24 23 23 22 22 21 21 20 20 19 19 19 18 18 18 18 17 17 17 17 17 17 17 17 16
27 27 28 30 30 31 30 30 30 30 29 28 27 27 26 25 24 24 23 23 23 22 22 21 21 20 20 19 19 19 18 18 18 17 17 17 17 17 17 17 17 17 16 16
27 26 26 28 30 30 30 28 29 28 28 27 27 26 25 24 23 23 22 22 22 22 21 21 20 20 19 19 19 18 18 18 18 17 17 17 17 17 17 17 17 16 16 16
26 26 26 28 29 29 27 26 27 27 27 26 26 25 24 23 22 22 22 21 22 21 21 20 20 19 19 19 18 18 18 17 17 17 17 17 17 17 17 16 16 16 16 16
26 25 25 27 27 26 25 26 26 26 25 25 24 23 22 22 21 21 21 21 21 20 20 19 19 19 19 18 18 18 17 17 17 17 17 17 17 16 16 16 16 16 16 16
25 25 24 24 25 24 25 24 25 24 24 23 23 22 21 21 20 20 20 20 20 20 19 19 18 18 18 18 18 17 17 17 17 17 17 17 16 16 16 16 16 16 16 16
24 24 24 24 24 24 23 23 23 23 23 22 22 21 20 20 19 19 19 19 19 19 18 18 18 18 18 17 17 17 17 17 17 17 17 16 16 16 16 16 16 16 16 16
23 23 23 22 22 22 22 22 22 22 22 21 21 20 19 19 19 18 18 18 18 18 18 17 17 17 17 17 17 17 17 16 16 16 16 16 16 16 16 16 16 16 16 15
22 22 22 22 22 21 21 21 21 21 21 20 20 19 19 18 18 18 18 18 17 17 17 17 17 17 16 16 16 16 16 16 16 16 16 16 16 16 16 16 16 16 16 15
22 22 21 21 21 20 20 20 20 20 20 19 19 18 18 17 17 17 17 17 17 17 16 16 16 16 16 16 16 16 16 16 16 16 16 15 15 15 15 16 16 15 15 15
21 20 20 20 20 20 19 19 19 19 18 18 18 17 17 17 16 16 16 16 16 16 16 16 16 15 15 15 15 15 15 16 16 16 15 15 15 15 15 15 15 15 15 15
20 20 19 19 19 19 19 18 18 18 18 17 17 17 16 16 16 16 16 15 15 15 15 15 15 15 15 15 15 15 15 15 15 15 15 15 15 15 15 15 15 15 15 15
19 19 19 18 18 18 18 18 18 17 17 17 16 16 16 15 15 15 15 15 15 15 15 15 15 14 15 14 14 15 15 15 15 15 15 15 15 15 15 15 15 15 14 14
18 18 18 18 18 18 17 17 17 17 16 16 16 15 15 15 15 15 15 15 15 14 14 14 14 14 14 14 14 14 14 15 15 15 15 14 14 15 15 14 14 14 14 14
17 17 17 17 17 17 17 17 16 16 16 15 15 15 15 14 14 14 14 14 14 14 14 14 14 14 14 14 14 14 14 14 14 14 14 14 14 14 14 14 14 14 14 14
17 17 17 17 16 16 16 16 16 15 15 15 15 14 14 14 14 14 13 13 13 13 13 13 13 13 13 14 14 14 14 14 14 14 14 14 14 14 14 14 14 13 13 13
16 16 16 16 16 16 15 15 15 15 15 14 14 14 13 13 13 13 13 13 13 13 13 13 13 13 13 13 13 14 14 14 14 14 14 14 14 14 13 13 13 13 13 13
16 16 16 15 15 15 15 15 14 14 14 14 13 13 13 13 13 13 13 12 12 13 12 12 12 13 13 13 13 13 13 14 13 13 13 13 13 13 13 13 12 12 12 12
15 15 15 15 15 14 14 14 14 14 13 13 13 13 13 13 13 12 12 12 12 12 12 12 12 12 13 13 13 13 13 13 13 13 13 13 12 12 12 12 12 12 12 12
14 14 15 14 14 14 14 14 14 13 13 13 13 13 13 13 13 13 12 12 12 12 12 12 12 12 12 12 12 12 12 13 12 12 12 12 12 12 11 11 11 11 11 11
14 14 14 14 14 13 13 13 13 13 13 13 13 13 13 13 12 12 12 12 12 12 12 12 12 12 12 12 12 12 12 12 12 12 12 11 11 11 11 11 11 10 10 10
13 13 13 13 13 13 13 13 13 13 13 13 13 12 12 12 12 12 12 12 12 11 11 12 12 12 12 11 11 11 11 11 11 11 11 11 11 10 10 10 10 10 9 9
13 13 13 13 13 13 13 13 13 13 13 13 13 13 12 12 12 12 12 12 12 11 11 11 11 11 11 11 11 11 11 11 11 10 10 10 10 10 9 9 9 9 9 8
13 13 13 13 13 13 14 14 13 13 13 13 13 12 12 12 12 12 12 12 12 11 11 11 11 11 11 11 11 10 10 10 10 10 10 9 9 9 9 8 8 8 8 8
Wind_Speed
16 16 14 14 15 15 14 12 11 9 7 6 5 5 5 6 7 8 7 5 6 7 7 7 7 7 7 7 7 7 8 8 7 6 5 4 4 4 3 3 3 2 2 2
15 17 17 16 15 15 14 13 12 10 7 4 4 4 5 6 7 7 6 4 5 7 7 7 7 7 7 7 7 6 7 7 6 6 6 5 4 4 4 3 2 2 2 3
14 15 16 17 13 11 11 9 9 9 5 3 4 5 5 5 6 5 6 5 5 6 6 6 6 6 6 6 6 6 6 6 6 6 6 5 5 4 4 4 4 3 3 3
13 13 17 10 8 8 8 7 5 4 5 4 4 5 5 5 5 5 5 5 4 6 6 6 6 6 6 7 6 6 6 6 6 5 5 5 4 4 4 3 3 3 3 3
12 13 14 9 6 6 7 6 3 2 3 4 5 5 6 5 4 4 4 4 4 5 7 6 6 5 6 7 7 6 6 5 5 5 4 4 4 4 3 3 3 4 3 4
11 12 11 7 5 4 5 6 0 2 2 3 5 3 3 4 4 4 4 3 4 5 6 6 5 5 5 6 6 6 5 5 4 4 4 4 4 3 3 3 3 4 3 4
13 12 8 6 4 4 6 1 3 1 1 1 3 3 4 5 4 3 4 4 4 5 5 6 5 5 4 5 5 5 5 4 4 4 3 3 3 3 3 3 4 4 4 4
11 12 7 5 2 3 3 4 3 3 3 4 6 6 6 5 4 4 3 3 4 5 5 5 5 4 4 4 4 4 5 5 4 4 4 3 3 3 3 4 5 5 5 5
5 3 3 5 5 4 4 4 4 3 4 5 6 5 5 5 4 3 2 2 3 4 4 4 4 4 4 3 3 4 4 4 4 3 3 3 4 4 4 5 5 5 5 5
3 1 2 4 5 5 4 4 4 3 3 4 4 5 5 5 4 2 2 2 3 4 4 3 3 4 4 4 3 4 4 3 3 3 4 4 4 5 5 4 4 4 4 4
3 2 0 3 4 4 4 3 3 3 2 3 4 4 4 4 3 2 1 2 2 3 3 4 3 3 3 3 3 3 3 3 4 4 4 3 4 4 4 3 4 4 3 3
4 2 1 1 2 3 3 3 2 1 2 3 3 4 4 4 3 2 2 3 3 3 3 3 3 4 3 3 3 3 3 3 4 4 3 4 4 3 3 4 5 6 4 4
3 1 1 0 1 2 2 1 1 2 3 3 4 5 5 4 3 3 3 3 3 3 3 3 3 3 2 2 3 3 3 3 3 3 3 4 4 4 4 4 5 6 6 6
0 1 1 1 0 1 1 2 0 2 2 3 3 4 4 3 3 3 3 3 3 3 2 3 3 2 1 0 1 2 3 3 3 4 5 5 4 4 5 5 4 4 5 8
1 1 2 1 1 1 2 1 1 3 3 4 4 3 4 3 3 4 3 3 3 3 3 3 3 2 1 1 2 3 3 2 3 4 5 4 4 5 5 5 4 3 3 3
3 3 3 3 2 2 2 2 2 3 3 4 4 4 4 4 4 4 4 4 3 2 2 2 2 1 0 2 3 2 2 3 3 4 5 5 5 5 5 5 4 3 2 2
5 5 4 4 4 3 3 2 2 3 3 4 5 4 4 4 4 4 3 3 3 3 3 2 1 1 1 2 2 3 3 3 5 5 5 4 4 5 4 4 4 4 3 3
6 5 5 4 3 3 2 2 3 4 3 4 5 4 3 3 4 4 4 4 4 4 4 4 3 3 2 2 3 4 4 3 3 4 4 3 4 4 4 4 4 4 4 2
5 4 3 2 2 2 2 3 3 4 4 4 4 4 4 4 5 4 3 4 3 3 3 4 4 3 2 3 4 4 4 4 3 3 3 4 4 4 3 3 4 4 4 2
5 5 4 3 3 3 3 3 3 4 4 4 4 4 4 4 3 3 3 2 2 2 2 2 2 3 3 3 5 5 4 4 3 3 3 3 3 3 3 3 3 3 3 3
5 5 5 4 3 2 3 4 5 5 5 5 5 5 4 3 3 2 1 1 2 3 2 1 2 3 4 5 6 5 4 3 4 3 3 3 3 3 3 3 3 3 3 3
5 5 5 5 4 3 3 5 6 6 6 5 5 4 3 2 2 2 2 2 2 3 2 1 2 4 6 6 4 4 4 4 4 4 3 3 3 3 3 4 4 4 3 3
3 3 4 5 4 4 5 6 7 6 6 5 4 3 3 1 1 2 2 2 2 2 2 3 4 4 6 4 4 5 5 5 4 4 4 4 3 3 3 4 4 4 4 4
3 3 4 4 4 6 6 6 6 6 5 4 4 3 2 2 2 3 4 4 4 3 2 3 2 3 3 3 3 4 4 5 5 4 4 4 4 4 4 4 4 5 5 5
3 3 4 5 5 5 6 7 7 6 6 5 5 3 2 2 2 3 4 4 4 2 2 2 1 1 2 3 3 4 4 4 4 4 5 4 4 4 4 4 4 5 5 4
3 3 4 4 4 4 5 6 5 5 5 5 4 4 3 3 2 2 2 3 3 2 1 1 1 0 1 3 4 4 4 3 4 4 4 5 5 5 5 5 6 6 6 5
4 4 4 4 4 4 4 4 5 5 4 4 4 4 3 3 2 2 2 2 2 2 2 2 2 2 3 3 4 4 4 4 5 5 5 5 5 5 5 6 6 6 6 6
Wind_Direction
260 266 262 244 242 241 240 248 259 260 241 196 171 165 149 138 137 134 130 135 136 135 132 135 135 139 146 151 153 159 160 163 164 169 163 159 160 162 167 178 183 178 186 184
259 262 261 255 246 247 244 240 240 243 257 199 155 140 138 140 136 131 136 146 143 137 139 141 140 145 149 154 153 155 160 162 161 166 164 165 169 166 165 170 175 183 188 191
255 257 265 254 247 241 247 247 240 243 232 186 163 146 146 146 139 138 143 144 141 142 144 143 146 143 149 151 152 153 159 160 160 165 166 169 179 171 179 181 186 197 198 187
254 255 252 256 263 250 246 259 248 215 171 161 141 117 110 111 118 121 124 128 138 147 144 146 148 150 149 155 152 157 163 165 163 168 171 171 177 180 189 192 193 206 208 190
249 249 252 253 262 271 256 247 243 200 160 119 115 111 108 101 99 99 103 110 125 136 144 139 142 143 149 152 151 160 162 162 163 166 168 170 175 186 192 197 200 212 208 199
244 251 253 258 273 284 274 251 99 119 144 159 147 173 149 104 87 88 92 102 114 119 125 127 130 139 145 153 154 159 157 154 154 158 168 178 181 186 195 200 212 220 212 206
242 251 257 298 321 295 248 267 35 114 124 86 97 68 105 102 82 79 87 99 105 115 122 123 126 136 143 148 153 148 145 144 149 150 167 182 171 174 193 212 221 227 225 221
240 247 247 341 320 314 15 53 50 57 63 78 88 99 109 107 101 97 92 100 117 109 112 118 126 136 140 144 140 139 145 150 159 167 190 185 174 195 207 216 222 224 227 235
251 239 50 28 37 37 41 52 56 75 75 99 109 112 112 114 109 100 102 113 120 117 115 121 131 140 144 144 147 151 154 162 173 182 195 188 198 213 222 222 227 233 227 231
270 156 68 39 32 35 42 48 46 69 88 109 113 117 119 114 109 106 100 128 135 131 131 133 141 146 143 144 150 156 162 174 185 195 207 202 214 223 224 228 232 236 237 241
259 251 47 42 25 24 24 30 44 44 75 106 115 124 131 125 122 120 109 109 124 133 137 143 142 139 144 143 146 160 173 183 203 217 212 211 224 233 237 234 232 235 251 259
251 244 234 61 25 41 32 17 7 50 85 98 115 115 117 111 111 121 131 122 123 126 132 136 143 142 140 151 165 180 198 207 221 227 212 215 224 227 228 229 222 216 221 237
257 205 131 127 8 24 36 17 2 70 89 87 93 105 107 106 106 111 114 116 115 117 118 120 119 124 140 162 180 201 227 228 237 240 234 231 229 229 244 247 240 242 237 237
123 154 185 190 246 359 354 352 5 107 104 99 100 101 103 102 103 108 111 115 111 106 110 113 108 101 74 128 220 233 246 240 241 247 248 246 242 243 248 253 250 244 236 232
247 214 208 220 192 257 257 243 184 126 114 104 103 106 109 104 100 101 102 105 102 106 104 112 113 109 78 260 245 247 256 264 265 267 264 258 256 257 258 256 252 249 244 232
224 229 226 231 228 218 213 206 164 116 112 116 115 114 111 104 99 92 97 103 100 91 91 91 87 74 40 292 285 266 263 263 264 272 272 268 262 263 265 267 264 263 265 271
216 211 212 223 228 196 199 205 148 121 107 111 119 112 103 101 97 86 86 83 76 73 68 64 37 7 338 305 295 284 272 254 238 255 267 277 279 281 279 277 277 274 271 253
209 210 210 217 216 187 159 153 143 129 114 115 122 115 103 101 102 93 78 70 69 59 44 33 14 354 351 342 308 291 287 284 269 269 272 276 278 278 279 283 288 287 284 263
191 194 205 205 182 141 136 139 137 122 113 110 103 95 89 84 84 83 77 71 63 54 32 27 358 335 338 349 316 290 291 294 295 294 286 284 276 279 283 294 297 296 294 295
189 194 188 179 168 163 167 151 137 125 117 113 108 104 96 88 88 89 87 76 40 30 32 20 341 333 332 340 314 292 289 289 290 289 281 281 297 306 302 303 303 303 312 317
175 172 170 172 175 183 166 153 142 135 130 129 124 119 115 108 99 93 90 82 46 23 11 50 358 341 341 328 297 294 305 308 309 310 309 311 320 327 330 320 313 312 315 317
176 176 172 167 168 174 161 146 141 135 127 126 128 132 133 134 128 108 73 53 60 14 349 18 14 5 347 325 315 322 330 334 342 347 343 346 347 342 341 339 327 326 336 340
165 167 165 166 168 159 144 139 136 134 133 135 136 141 146 147 143 128 104 88 75 17 6 30 37 22 350 340 344 347 352 358 5 5 1 358 353 352 352 352 348 345 348 351
152 164 171 162 161 157 146 138 133 133 136 138 141 149 156 143 116 101 95 88 68 64 48 68 74 15 348 5 359 1 4 8 10 5 2 3 2 3 359 355 353 355 350 346
145 150 151 157 162 149 140 140 139 146 149 141 136 132 116 90 88 89 97 105 112 103 50 98 161 309 352 4 5 9 12 15 12 5 360 2 1 1 357 355 354 347 345 345
146 154 151 152 143 144 149 150 151 152 147 135 129 121 115 111 110 110 106 105 105 110 50 39 61 234 15 1 6 12 11 9 9 9 14 11 11 11 11 11 4 359 351 349
155 151 145 145 148 157 156 149 141 137 133 134 135 134 124 115 108 109 104 86 82 79 36 16 22 28 25 19 21 19 16 15 18 17 15 18 19 17 13 12 12 8 358 359
Height
1445 1440 1438 1441 1442 1440 1444 1447 1456 1455 1454 1452 1450 1454 1457 1462 1466 1470 1473 1477 1479 1482 1486 1489 1492 1494 1497 1500 1502 1505 1506 1508 1510 1512 1514 1515 1516 1516 1518 1519 1520 1520 1521 1521
1450 1441 1438 1439 1436 1436 1438 1441 1445 1449 1453 1446 1450 1455 1458 1463 1466 1470 1472 1475 1479 1482 1485 1488 1490 1493 1495 1498 1500 1502 1504 1506 1508 1510 1511 1512 1513 1514 1515 1516 1518 1519 1519 1519
1455 1445 1442 1447 1437 1437 1438 1438 1443 1451 1451 1449 1452 1456 1459 1462 1466 1470 1473 1476 1478 1481 1484 1486 1489 1491 1493 1496 1498 1500 1502 1504 1506 1507 1509 1510 1512 1512 1513 1514 1515 1516 1517 1517
1455 1455 1467 1444 1429 1430 1436 1438 1438 1441 1446 1449 1453 1458 1461 1464 1466 1470 1473 1475 1478 1480 1483 1485 1487 1490 1492 1494 1496 1498 1500 1502 1504 1505 1506 1508 1509 1510 1511 1512 1513 1513 1514 1515
1455 1459 1453 1440 1433 1434 1439 1442 1440 1443 1447 1451 1455 1459 1463 1465 1468 1471 1473 1475 1477 1479 1481 1484 1486 1488 1490 1492 1494 1495 1497 1499 1501 1503 1504 1506 1507 1508 1509 1510 1510 1511 1512 1512
1454 1463 1464 1448 1435 1435 1438 1449 1443 1445 1449 1452 1455 1460 1463 1466 1469 1471 1471 1474 1477 1479 1481 1482 1484 1486 1488 1490 1491 1493 1495 1497 1499 1501 1502 1504 1504 1505 1507 1508 1508 1509 1509 1510
1454 1458 1454 1441 1438 1438 1454 1456 1449 1449 1451 1453 1456 1461 1464 1466 1469 1471 1471 1474 1477 1478 1480 1482 1483 1485 1487 1489 1490 1492 1493 1495 1497 1498 1500 1501 1502 1503 1504 1505 1506 1506 1507 1507
1452 1459 1461 1445 1443 1448 1453 1450 1451 1452 1454 1456 1459 1462 1465 1467 1469 1471 1472 1475 1477 1479 1480 1481 1483 1485 1486 1487 1489 1491 1492 1494 1496 1497 1499 1500 1500 1501 1502 1502 1503 1503 1503 1504
1449 1454 1451 1450 1450 1452 1453 1453 1454 1454 1457 1459 1461 1463 1465 1468 1469 1472 1474 1475 1477 1478 1480 1481 1483 1484 1485 1486 1488 1489 1491 1492 1494 1495 1496 1497 1498 1498 1499 1500 1500 1500 1500 1501
1449 1450 1451 1453 1454 1454 1455 1456 1456 1457 1458 1460 1461 1463 1465 1468 1470 1472 1474 1475 1476 1478 1479 1480 1482 1483 1484 1485 1487 1488 1489 1490 1492 1493 1494 1495 1495 1496 1497 1497 1497 1497 1497 1497
1451 1452 1452 1455 1456 1456 1457 1457 1457 1458 1459 1460 1461 1463 1465 1467 1470 1471 1473 1474 1476 1477 1478 1480 1481 1482 1483 1484 1485 1486 1487 1488 1489 1491 1491 1492 1492 1493 1493 1494 1494 1494 1494 1494
1453 1453 1455 1457 1457 1458 1459 1458 1459 1460 1460 1461 1462 1463 1465 1467 1469 1470 1472 1473 1475 1476 1477 1479 1480 1481 1482 1483 1484 1485 1486 1486 1488 1488 1489 1489 1489 1490 1490 1491 1491 1491 1491 1491
1452 1453 1455 1457 1458 1459 1460 1460 1461 1461 1461 1462 1463 1464 1465 1467 1468 1470 1472 1473 1474 1475 1476 1478 1479 1480 1481 1482 1482 1482 1483 1485 1485 1486 1487 1487 1487 1487 1487 1487 1487 1487 1486 1486
1452 1454 1456 1457 1459 1460 1460 1461 1461 1461 1462 1463 1464 1465 1466 1468 1469 1470 1471 1472 1473 1474 1475 1476 1477 1478 1479 1480 1480 1480 1481 1482 1483 1483 1484 1484 1484 1484 1484 1484 1483 1482 1482 1482
1453 1455 1456 1457 1458 1459 1461 1461 1461 1461 1462 1463 1464 1465 1467 1468 1469 1469 1470 1472 1473 1474 1475 1475 1476 1476 1477 1478 1478 1478 1479 1480 1481 1481 1481 1481 1481 1481 1481 1481 1480 1479 1479 1478
1453 1455 1456 1457 1458 1459 1460 1461 1461 1461 1462 1462 1463 1465 1467 1468 1469 1469 1470 1471 1472 1473 1474 1474 1475 1475 1475 1476 1477 1477 1477 1478 1478 1478 1479 1479 1479 1478 1478 1477 1476 1475 1475 1474
1452 1454 1455 1457 1458 1458 1460 1460 1461 1461 1461 1462 1464 1465 1467 1467 1468 1469 1470 1471 1472 1472 1473 1473 1474 1474 1474 1475 1475 1475 1475 1476 1475 1476 1476 1476 1476 1475 1475 1474 1473 1472 1471 1470
1451 1453 1454 1456 1457 1457 1458 1460 1461 1462 1462 1463 1464 1465 1466 1467 1468 1469 1470 1471 1472 1472 1473 1473 1473 1473 1473 1473 1473 1473 1473 1473 1473 1473 1473 1473 1472 1472 1471 1470 1469 1469 1468 1467
1450 1451 1453 1454 1456 1456 1458 1459 1461 1462 1462 1464 1464 1465 1466 1468 1469 1470 1470 1471 1471 1471 1471 1471 1471 1471 1471 1471 1471 1471 1471 1471 1471 1471 1470 1470 1470 1469 1468 1467 1467 1466 1465 1464
1448 1450 1452 1453 1454 1455 1457 1458 1459 1461 1462 1463 1465 1466 1467 1468 1469 1470 1470 1471 1471 1470 1470 1470 1470 1470 1470 1469 1469 1469 1469 1469 1469 1468 1468 1468 1467 1466 1465 1465 1464 1463 1462 1461
1447 1448 1450 1452 1453 1454 1455 1457 1458 1460 1462 1463 1465 1466 1467 1468 1469 1470 1470 1470 1470 1470 1470 1469 1469 1469 1468 1468 1467 1468 1467 1467 1466 1466 1465 1464 1464 1463 1463 1462 1461 1460 1459 1458
1445 1447 1449 1450 1451 1453 1455 1456 1457 1459 1461 1463 1465 1466 1467 1468 1469 1470 1470 1470 1470 1470 1470 1469 1469 1468 1467 1466 1466 1466 1465 1465 1464 1463 1462 1462 1461 1461 1460 1459 1458 1457 1456 1455
1444 1446 1447 1449 1450 1451 1454 1455 1457 1459 1461 1463 1464 1466 1467 1468 1469 1469 1469 1470 1469 1469 1469 1468 1467 1466 1466 1465 1465 1464 1463 1463 1462 1462 1461 1460 1460 1459 1458 1457 1456 1455 1454 1453
1443 1444 1446 1447 1449 1451 1452 1454 1457 1459 1461 1462 1464 1465 1466 1467 1468 1468 1468 1469 1469 1468 1468 1467 1466 1465 1464 1464 1464 1463 1462 1462 1461 1461 1460 1459 1458 1457 1457 1456 1455 1453 1452 1451
1442 1443 1445 1447 1449 1449 1452 1454 1456 1459 1461 1462 1464 1465 1466 1467 1468 1468 1468 1468 1468 1468 1468 1467 1465 1464 1464 1464 1463 1462 1462 1462 1461 1460 1459 1458 1457 1456 1456 1454 1453 1452 1450 1449
1442 1443 1445 1446 1448 1450 1453 1454 1456 1458 1460 1462 1464 1465 1466 1467 1467 1468 1468 1469 1468 1468 1468 1467 1466 1465 1465 1465 1464 1463 1462 1462 1461 1460 1459 1458 1457 1456 1455 1453 1452 1450 1449 1447
1442 1443 1445 1447 1449 1451 1452 1454 1455 1457 1460 1462 1464 1466 1466 1467 1467 1468 1468 1469 1469 1469 1468 1468 1467 1467 1466 1465 1464 1463 1462 1462 1461 1460 1459 1458 1456 1455 1454 1452 1450 1449 1447 1445